Regional Weather Roundup
Issued by NWS

Home | Current Version | Previous Version | Graphics & Text | Print | Product List | Glossary On
Versions: 1 2 3 4 5 6 7 8 9 10 11 12 13 14 15 16 17 18 19 20 21 22 23 24 25 26 27 28 29 30 31 32 33 34 35 36 37 38 39 40 41 42 43 44 45 46 47 48 49 50
000
ASUS43 KIND 261759
RWRIN

WEATHER ROUNDUP FOR INDIANA
NATIONAL WEATHER SERVICE INDIANAPOLIS IN
100 PM EST MON JAN 26 2015

NOTE: "FAIR" INDICATES FEW OR NO CLOUDS BELOW 12,000 FEET WITH NO
SIGNIFICANT WEATHER AND/OR OBSTRUCTIONS TO VISIBILITY.

* - STATION DOES NOT REPORT WEATHER SUCH AS PRECIPITATION OR FOG.

+ - STATION NOT QUALITY CONTROLLED BY THE NATIONAL WEATHER SERVICE.
    USE DATA WITH CAUTION...ESPECIALLY DEWPOINT AND RELATIVE
    HUMIDITY OBSERVATIONS.

INZ001>003-010>013-019-020-261900-
NORTHWEST INDIANA

CITY           SKY/WX    TMP DP  RH WIND       PRES   REMARKS
GARY /AIRPORT/ CLOUDY    27  12  54 S5        29.93F WCI  21
VALPARAISO     NOT AVBL

$$

LMZ046-743>745-261900-
SOUTHERN LAKE MICHIGAN

STATION/POSITION TIME  TEMP WIND        PRES
                       AIR  DIR/SP/G
                 (UTC) (F)  (DEG/KT/KT) (MB)
MICHIGAN CITY    1700   20  200/  1/  3   N/A

$$

INZ004-005-014>016-021>024-261900-
NORTH CENTRAL INDIANA

CITY           SKY/WX    TMP DP  RH WIND       PRES   REMARKS
GOSHEN         MOSUNNY   21  11  65 CALM      29.92F
6HR MIN TEMP:   9; 6HR MAX TEMP:  21;

SOUTH BEND     MOSUNNY   21  10  62 SW6       29.92F WCI  13
6HR MIN TEMP:   7; 6HR MAX TEMP:  21;


$$

INZ006>009-017-018-025>027-261900-
NORTHEAST INDIANA

CITY           SKY/WX    TMP DP  RH WIND       PRES   REMARKS
ANGOLA *+      SUNNY     21   7  53 CALM      29.90F
FORT WAYNE     PTSUNNY   19  10  68 CALM      29.93F
6HR MIN TEMP:   7; 6HR MAX TEMP:  20;


$$

INZ028-029-035-036-043>045-051>053-261900-
WEST CENTRAL INDIANA

CITY           SKY/WX    TMP DP  RH WIND       PRES   REMARKS
GREENCASTLE +  CLOUDY    27  18  69 W3        29.93F
LAFAYETTE      CLOUDY    25  18  74 NW3       29.93F
6HR MIN TEMP:  15; 6HR MAX TEMP:  26;

TERRE HAUTE    CLOUDY    29  21  72 W7        29.95F WCI  22
6HR MIN TEMP:  26; 6HR MAX TEMP:  29;


$$

INZ030>032-037>040-046>048-054>057-064-065-261900-
CENTRAL INDIANA

CITY           SKY/WX    TMP DP  RH WIND       PRES   REMARKS
ANDERSON       SUNNY     21  12  68 W12       29.94F WCI   9
COLUMBUS       PTSUNNY   28  19  69 NW9       29.94F WCI  20
INDIANAPOLIS   PTSUNNY   23  18  81 NW8       29.92F WCI  14
6HR MIN TEMP:  17; 6HR MAX TEMP:  25;

-EAGLE CREEK   PTSUNNY   25  18  74 W5        29.91F WCI  19
6HR MIN TEMP:  18; 6HR MAX TEMP:  26;

KOKOMO *+      SUNNY     21  12  68 CALM      29.93F
MT COMFORT *+  SUNNY     28  10  47 W5        29.92F WCI  23
SHELBYVILLE    PTSUNNY   28  19  69 W9        29.92F WCI  19
6HR MIN TEMP:  18; 6HR MAX TEMP:  29;


$$

INZ033-034-041-042-049-050-058-059-261900-
EAST CENTRAL INDIANA

CITY           SKY/WX    TMP DP  RH WIND       PRES   REMARKS
MUNCIE         MOSUNNY   20  11  68 CALM      29.92F
6HR MIN TEMP:  12; 6HR MAX TEMP:  20;


$$

INZ060-061-067>069-081>083-085>088-261900-
SOUTHWEST INDIANA

CITY           SKY/WX    TMP DP  RH WIND       PRES   REMARKS
EVANSVILLE     CLOUDY    31  24  75 W10       30.01F WCI  22
6HR MIN TEMP:  31; 6HR MAX TEMP:  32;

HUNTINGBURG *+ CLOUDY    30  23  74 NW12      29.99F WCI  21
6HR MIN TEMP:  27; 6HR MAX TEMP:  30;


$$

INZ062-063-066-070>080-084-089>092-261900-
SOUTH CENTRAL AND SOUTHEAST INDIANA

CITY           SKY/WX    TMP DP  RH WIND       PRES   REMARKS
BLOOMINGTON    CLOUDY    27  21  78 W8        29.93F WCI  19
6HR MIN TEMP:  22; 6HR MAX TEMP:  28;

SEYMOUR +      CLOUDY    32  23  69 W10       29.96  WCI  24

$$




USA.gov is the U.S. government's official web portal to all federal, state and local government web resources and services.